Flag Weather past 2 weeks in Saguenay, Quebec, Canada

Now
7 °F

Frigid.


Feels Like: -5 °F
Forecast: 6 / 18 °F
Wind: 8 mph from West

Location: Jonquiere Airport

Current Time: Nov 29, 2014 at 12:37:50 AM

Latest Report: Nov 29, 2014 at 12:00 AM


Visibility: N/A

Pressure: 30.18 "Hg

Humidity: 75%

Dew point: 1 °F

Location of SaguenayLocation

Historic Weather in Saguenay — Graph

°F

Saguenay temperature yesterday

Maximum temperature yesterday: 16 °F (at 1:00 PM)
Minimum temperature yesterday: 8 °F (at 11:00 PM)
Average temperature yesterday: 13 °F

Past Weeks' High & Low Weather Summary

 TemperatureHumidityPressure
High56 °F (Nov 24, 11:00 PM)100% (Nov 16, 8:00 PM)30.31 "Hg (Nov 16, 8:00 PM)
Low8 °F (Nov 22, 4:00 AM)51% (Nov 18, 2:00 PM)29.15 "Hg (Nov 24, 11:00 PM)
Average25 °F80%29.87 "Hg
* Reported Nov 13 11:00 PM — Nov 28 11:00 PM, Saguenay, Weather by CustomWeather, © 2014

Note: Actual official high and low records may vary slightly from our data, if they occured in-between our weather recording intervals... More about our weather records

Advertising

Saguenay weather history for previous 24 hours

 ConditionsComfort  
Time TempWeatherWind HumidityBarometerVisibility
11:00 PM
Nov 28
8 °FFrigid.7 mph73%30.18 "HgN/A
10:00 PM11 °FCold.10 mph64%30.17 "HgN/A
9:00 PM10 °FCold.10 mph72%30.17 "HgN/A
8:00 PM13 °FCold.8 mph76%30.17 "HgN/A
7:00 PM14 °FCold.6 mph79%30.16 "HgN/A
6:00 PM12 °FCold.2 mph85%30.15 "HgN/A
5:00 PM12 °FCold.7 mph83%30.14 "HgN/A
4:00 PM13 °FCold.7 mph80%30.12 "HgN/A
3:00 PM15 °FCold.8 mph79%30.11 "HgN/A
2:00 PM15 °FCold.6 mph83%30.09 "HgN/A
1:00 PM16 °FCold.8 mph82%30.09 "HgN/A
12:00 PM15 °FCold.7 mph86%30.10 "HgN/A
11:00 AM15 °FCold.3 mph80%30.11 "HgN/A
10:00 AM14 °FCold.2 mph84%30.12 "HgN/A
9:00 AM13 °FCold.1 mph84%30.13 "HgN/A
8:00 AM12 °FCold.1 mph86%30.13 "HgN/A
7:00 AM12 °FCold.2 mph87%30.14 "HgN/A
6:00 AM12 °FCold.6 mph85%30.14 "HgN/A
5:00 AM12 °FCold.2 mph89%30.13 "HgN/A
4:00 AM11 °FCold.No wind90%30.13 "HgN/A
3:00 AM11 °FCold.3 mph88%30.14 "HgN/A
2:00 AM12 °FCold.5 mph84%30.14 "HgN/A
1:00 AM11 °FCold.5 mph86%30.13 "HgN/A
12:00 AM11 °FCold.5 mph86%30.13 "HgN/A
Weather by CustomWeather, © 2014

See weather overviewHow to use our weather pages